User: anonymous   Login
Location: Arborea
(39.7744°N, 8.5819°E)
Time: 05:25:05
(UTC+00:00)
Language:

Cosmos 2322 - Orbit

View from above orbital plane
View from above orbital plane
View from above satellite
View from above satellite

Ground track
Ground track

The orbit data is extracted from the following two-line orbital elements,

1 23704U 95058A   22017.55893747  .00000364  00000-0  21883-3 0  9991
2 23704  70.9865 132.0799 0007847  75.3527 284.8464 14.13451822352365
Epoch (UTC): 17 January 2022 13:24:52
Eccentricity: 0.0007847
inclination: 70.9865°
perigee height: 842 km
apogee height: 853 km
right ascension of ascending node: 132.0799°
argument of perigee: 75.3527°
revolutions per day: 14.13451822
mean anomaly at epoch: 284.8464°
orbit number at epoch: 35236

The dashed part of the orbit path shows where the satellite is in the earth's shadow,  

DLR